| time (UTC) | temp F | wind direction | speed MPH | gust MPH | rain 1hr in | rain 24hr in | rain mn in | humidity % | barometer mb |
| 20260903113050 | 55 | 196 | 3.0 | 8.0 | 0.08 | 0.22 | 0.12 | 97 | 1008.4 |
| 20260903112526 | 55 | 149 | 4.0 | 10.0 | 0.08 | 0.21 | 0.11 | 97 | 1008.4 |
| 20260903112029 | 55 | 106 | 5.0 | 10.0 | 0.07 | 0.20 | 0.10 | 97 | 1008.3 |
| 20260903111548 | 55 | 169 | 7.0 | 9.0 | 0.07 | 0.19 | 0.09 | 97 | 1008.4 |
| 20260903111024 | 55 | 153 | 5.0 | 11.0 | 0.07 | 0.19 | 0.09 | 97 | 1008.3 |
| 20260903110529 | 55 | 126 | 5.0 | 11.0 | 0.06 | 0.18 | 0.08 | 97 | 1008.3 |
| 20260903110052 | 55 | 144 | 4.0 | 10.0 | 0.06 | 0.18 | 0.08 | 97 | 1008.2 |
| 20260903105526 | 55 | 146 | 4.0 | 10.0 | 0.05 | 0.17 | 0.07 | 97 | 1008.2 |
| 20260903105029 | 55 | 134 | 3.0 | 12.0 | 0.04 | 0.16 | 0.06 | 97 | 1008.3 |
| 20260903104551 | 55 | 157 | 8.0 | 12.0 | 0.04 | 0.16 | 0.06 | 97 | 1008.3 |
| 20260903104023 | 55 | 153 | 7.0 | 12.0 | 0.03 | 0.15 | 0.05 | 98 | 1008.2 |
| 20260903103528 | 55 | 165 | 5.0 | 10.0 | 0.03 | 0.14 | 0.04 | 98 | 1008.2 |
| 20260903103052 | 54 | 146 | 7.0 | 10.0 | 0.03 | 0.14 | 0.04 | 98 | 1008.2 |
| 20260903102527 | 54 | 164 | 4.0 | 10.0 | 0.02 | 0.13 | 0.03 | 98 | 1008.2 |
| 20260903102023 | 53 | 167 | 1.0 | 5.0 | 0.02 | 0.13 | 0.03 | 98 | 1008.1 |
| 20260903101554 | 53 | 0 | 0.0 | 1.0 | 0.01 | 0.12 | 0.02 | 98 | 1008.2 |
| 20260903101023 | 53 | 0 | 0.0 | 1.0 | 0.01 | 0.12 | 0.02 | 98 | 1008.1 |
| 20260903100524 | 53 | 0 | 0.0 | 1.0 | 0.01 | 0.12 | 0.02 | 98 | 1008.1 |
| 20260903100050 | 52 | 0 | 0.0 | 1.0 | 0.01 | 0.12 | 0.02 | 98 | 1008.2 |
| 20260903095525 | 52 | 0 | 0.0 | 1.0 | 0.01 | 0.12 | 0.02 | 98 | 1008.1 |
| 20260903095026 | 52 | 270 | 0.0 | 2.0 | 0.01 | 0.12 | 0.02 | 98 | 1008.0 |
| 20260903094551 | 52 | 0 | 0.0 | 2.0 | 0.01 | 0.12 | 0.02 | 98 | 1008.0 |
| 20260903094026 | 52 | 262 | 0.0 | 2.0 | 0.01 | 0.12 | 0.02 | 98 | 1007.9 |
| 20260903093527 | 51 | 340 | 1.0 | 2.0 | 0.00 | 0.11 | 0.01 | 97 | 1007.9 |
| 20260903093117 | 51 | 5 | 0.0 | 1.0 | 0.00 | 0.11 | 0.01 | 97 | 1008.0 |
| 20260903092524 | 51 | 0 | 0.0 | 2.0 | 0.00 | 0.11 | 0.01 | 97 | 1007.9 |
| 20260903092026 | 51 | 0 | 0.0 | 2.0 | 0.00 | 0.11 | 0.01 | 97 | 1008.0 |
| 20260903091549 | 51 | 352 | 0.0 | 1.0 | 0.00 | 0.11 | 0.01 | 98 | 1008.1 |
| 20260903091024 | 51 | 22 | 0.0 | 2.0 | 0.00 | 0.11 | 0.01 | 97 | 1008.0 |
| 20260903090524 | 51 | 22 | 0.0 | 2.0 | 0.00 | 0.11 | 0.01 | 97 | 1008.1 |
| 20260903090048 | 50 | 23 | 0.0 | 1.0 | 0.00 | 0.11 | 0.01 | 97 | 1008.0 |
| 20260903085523 | 50 | 24 | 0.0 | 1.0 | 0.00 | 0.11 | 0.01 | 97 | 1008.1 |
| 20260903085026 | 50 | 0 | 0.0 | 1.0 | 0.00 | 0.11 | 0.01 | 97 | 1008.1 |
| 20260903084552 | 50 | 0 | 0.0 | 1.0 | 0.00 | 0.11 | 0.01 | 97 | 1008.1 |
| 20260903084027 | 50 | 330 | 0.0 | 1.0 | 0.00 | 0.11 | 0.01 | 97 | 1008.0 |
| 20260903083524 | 50 | 330 | 0.0 | 1.0 | 0.00 | 0.11 | 0.01 | 97 | 1008.1 |
| 20260903083050 | 50 | 330 | 0.0 | 1.0 | 0.00 | 0.11 | 0.01 | 97 | 1008.2 |
| 20260903082524 | 50 | 330 | 0.0 | 1.0 | 0.00 | 0.11 | 0.01 | 96 | 1008.1 |
| 20260903082025 | 51 | 320 | 0.0 | 1.0 | 0.00 | 0.11 | 0.01 | 97 | 1008.2 |
| 20260903081548 | 51 | 308 | 0.0 | 1.0 | 0.00 | 0.11 | 0.01 | 96 | 1008.0 |
| 20260903081024 | 51 | 0 | 0.0 | 0.0 | 0.00 | 0.11 | 0.01 | 96 | 1008.1 |
| 20260903080527 | 51 | 0 | 0.0 | 0.0 | 0.00 | 0.11 | 0.01 | 97 | 1008.0 |
| 20260903080058 | 51 | 307 | 0.0 | 1.0 | 0.01 | 0.11 | 0.01 | 97 | 1008.0 |
| 20260903075524 | 51 | 306 | 0.0 | 2.0 | 0.01 | 0.11 | 0.01 | 96 | 1008.1 |
| 20260903075026 | 51 | 306 | 1.0 | 2.0 | 0.01 | 0.11 | 0.01 | 96 | 1008.0 |
| 20260903074607 | 52 | 314 | 1.0 | 2.0 | 0.02 | 0.11 | 0.01 | 97 | 1007.8 |
| 20260903074027 | 52 | 0 | 0.0 | 1.0 | 0.02 | 0.11 | 0.01 | 97 | 1007.9 |
| 20260903073524 | 52 | 0 | 0.0 | 1.0 | 0.02 | 0.11 | 0.01 | 97 | 1007.9 |
| 20260903073059 | 51 | 0 | 0.0 | 1.0 | 0.02 | 0.11 | 0.01 | 97 | 1007.9 |
| 20260903072524 | 51 | 0 | 0.0 | 1.0 | 0.02 | 0.11 | 0.01 | 97 | 1008.0 |
| 20260903072025 | 51 | 76 | 0.0 | 1.0 | 0.02 | 0.11 | 0.01 | 97 | 1007.9 |
| 20260903071548 | 51 | 78 | 0.0 | 0.0 | 0.02 | 0.11 | 0.01 | 97 | 1007.9 |
| 20260903071027 | 51 | 0 | 0.0 | 0.0 | 0.02 | 0.11 | 0.01 | 97 | 1007.8 |
| 20260903070523 | 51 | 0 | 0.0 | 1.0 | 0.02 | 0.11 | 0.01 | 96 | 1007.8 |
| 20260903070051 | 50 | 0 | 0.0 | 1.0 | 0.01 | 0.10 | 0.00 | 96 | 1007.8 |
| 20260903065527 | 50 | 0 | 0.0 | 1.0 | 0.01 | 0.10 | 0.10 | 96 | 1007.8 |
| 20260903065023 | 50 | 0 | 0.0 | 1.0 | 0.01 | 0.10 | 0.10 | 96 | 1007.9 |
| 20260903064549 | 50 | 0 | 0.0 | 1.0 | 0.00 | 0.09 | 0.09 | 96 | 1007.9 |
| 20260903064025 | 50 | 78 | 0.0 | 1.0 | 0.00 | 0.09 | 0.09 | 96 | 1007.8 |
| 20260903063526 | 50 | 0 | 0.0 | 0.0 | 0.00 | 0.09 | 0.09 | 96 | 1007.8 |
| 20260903063046 | 50 | 0 | 0.0 | 0.0 | 0.00 | 0.09 | 0.09 | 96 | 1007.8 |
| 20260903062524 | 50 | 0 | 0.0 | 0.0 | 0.00 | 0.09 | 0.09 | 96 | 1007.9 |
| 20260903062028 | 50 | 0 | 0.0 | 0.0 | 0.00 | 0.09 | 0.09 | 96 | 1007.9 |
| 20260903061546 | 50 | 0 | 0.0 | 0.0 | 0.00 | 0.09 | 0.09 | 96 | 1007.8 |
| 20260903061029 | 49 | 0 | 0.0 | 0.0 | 0.00 | 0.09 | 0.09 | 96 | 1007.8 |
| 20260903060527 | 49 | 0 | 0.0 | 0.0 | 0.00 | 0.09 | 0.09 | 95 | 1007.8 |
| 20260903060054 | 49 | 0 | 0.0 | 0.0 | 0.00 | 0.09 | 0.09 | 95 | 1007.9 |
| 20260903055524 | 49 | 0 | 0.0 | 0.0 | 0.00 | 0.09 | 0.09 | 95 | 1007.8 |
| 20260903055024 | 50 | 0 | 0.0 | 0.0 | 0.00 | 0.09 | 0.09 | 95 | 1007.9 |
| 20260903054550 | 50 | 0 | 0.0 | 0.0 | 0.00 | 0.09 | 0.09 | 95 | 1007.8 |
| 20260903054024 | 50 | 0 | 0.0 | 0.0 | 0.00 | 0.09 | 0.09 | 95 | 1007.8 |
| 20260903053523 | 50 | 0 | 0.0 | 0.0 | 0.00 | 0.09 | 0.09 | 95 | 1007.9 |
| 20260903053043 | 50 | 0 | 0.0 | 0.0 | 0.00 | 0.09 | 0.09 | 95 | 1007.8 |
| 20260903052527 | 50 | 0 | 0.0 | 0.0 | 0.00 | 0.09 | 0.09 | 95 | 1007.8 |
| 20260903052025 | 50 | 0 | 0.0 | 0.0 | 0.00 | 0.09 | 0.09 | 95 | 1007.8 |
| 20260903051550 | 50 | 0 | 0.0 | 0.0 | 0.00 | 0.09 | 0.09 | 94 | 1007.7 |
| 20260903051024 | 50 | 0 | 0.0 | 0.0 | 0.00 | 0.09 | 0.09 | 94 | 1007.8 |
| 20260903050525 | 50 | 0 | 0.0 | 0.0 | 0.00 | 0.09 | 0.09 | 94 | 1007.7 |
| 20260903050052 | 51 | 0 | 0.0 | 0.0 | 0.00 | 0.09 | 0.09 | 94 | 1007.7 |
| 20260903045524 | 51 | 0 | 0.0 | 1.0 | 0.00 | 0.09 | 0.09 | 94 | 1007.8 |
| 20260903045024 | 51 | 0 | 0.0 | 1.0 | 0.00 | 0.09 | 0.09 | 94 | 1007.7 |
| 20260903044548 | 51 | 78 | 0.0 | 1.0 | 0.00 | 0.09 | 0.09 | 94 | 1007.7 |
| 20260903044026 | 51 | 98 | 0.0 | 1.0 | 0.00 | 0.09 | 0.09 | 93 | 1007.7 |
| 20260903043530 | 51 | 101 | 0.0 | 1.0 | 0.00 | 0.09 | 0.09 | 93 | 1007.6 |
| 20260903043050 | 51 | 101 | 0.0 | 0.0 | 0.00 | 0.09 | 0.09 | 92 | 1007.6 |
| 20260903042523 | 52 | 0 | 0.0 | 1.0 | 0.00 | 0.09 | 0.09 | 92 | 1007.5 |
| 20260903042024 | 52 | 0 | 0.0 | 1.0 | 0.00 | 0.09 | 0.09 | 92 | 1007.6 |
| 20260903041548 | 53 | 100 | 0.0 | 1.0 | 0.00 | 0.09 | 0.09 | 92 | 1007.6 |
| 20260903041025 | 53 | 0 | 0.0 | 1.0 | 0.00 | 0.09 | 0.09 | 92 | 1007.6 |
| 20260903040524 | 53 | 0 | 0.0 | 1.0 | 0.00 | 0.09 | 0.09 | 91 | 1007.4 |
| 20260903040046 | 53 | 0 | 0.0 | 1.0 | 0.00 | 0.09 | 0.09 | 90 | 1007.5 |
| 20260903035522 | 54 | 101 | 0.0 | 1.0 | 0.00 | 0.09 | 0.09 | 89 | 1007.5 |
| 20260903035023 | 54 | 100 | 0.0 | 1.0 | 0.00 | 0.09 | 0.09 | 89 | 1007.4 |
| 20260903034555 | 55 | 99 | 0.0 | 1.0 | 0.00 | 0.09 | 0.09 | 89 | 1007.4 |
| 20260903034024 | 55 | 117 | 0.0 | 2.0 | 0.00 | 0.09 | 0.09 | 89 | 1007.4 |
| 20260903033531 | 55 | 118 | 1.0 | 2.0 | 0.00 | 0.09 | 0.09 | 89 | 1007.3 |
| 20260903033049 | 55 | 128 | 1.0 | 3.0 | 0.00 | 0.09 | 0.09 | 88 | 1007.2 |
| 20260903032529 | 55 | 145 | 1.0 | 3.0 | 0.00 | 0.09 | 0.09 | 87 | 1007.1 |
| 20260903032025 | 56 | 128 | 2.0 | 3.0 | 0.00 | 0.09 | 0.09 | 86 | 1007.1 |
| 20260903031612 | 56 | 148 | 1.0 | 2.0 | 0.00 | 0.09 | 0.09 | 85 | 1007.0 |
| 20260903031025 | 57 | 128 | 0.0 | 2.0 | 0.00 | 0.09 | 0.09 | 84 | 1007.1 |
| 20260903030528 | 57 | 128 | 1.0 | 3.0 | 0.00 | 0.09 | 0.09 | 84 | 1007.0 |
| 20260903030057 | 58 | 134 | 1.0 | 4.0 | 0.00 | 0.09 | 0.09 | 82 | 1006.9 |
| 20260903025524 | 58 | 138 | 2.0 | 6.0 | 0.00 | 0.10 | 0.09 | 81 | 1006.9 |
| 20260903025024 | 59 | 167 | 3.0 | 8.0 | 0.00 | 0.10 | 0.09 | 80 | 1006.8 |
| 20260903024553 | 59 | 194 | 4.0 | 8.0 | 0.00 | 0.10 | 0.09 | 80 | 1006.9 |
| 20260903024025 | 60 | 161 | 4.0 | 8.0 | 0.00 | 0.10 | 0.09 | 79 | 1006.7 |
| 20260903023527 | 60 | 226 | 4.0 | 9.0 | 0.00 | 0.10 | 0.09 | 79 | 1006.6 |
| 20260903023044 | 60 | 217 | 4.0 | 9.0 | 0.00 | 0.10 | 0.09 | 78 | 1006.6 |
| 20260903022527 | 60 | 200 | 4.0 | 8.0 | 0.00 | 0.10 | 0.09 | 78 | 1006.4 |
| 20260903022026 | 60 | 207 | 4.0 | 9.0 | 0.00 | 0.10 | 0.09 | 78 | 1006.4 |
| 20260903021552 | 60 | 262 | 4.0 | 11.0 | 0.00 | 0.10 | 0.09 | 77 | 1006.4 |
| 20260903021026 | 61 | 205 | 6.0 | 11.0 | 0.00 | 0.10 | 0.09 | 77 | 1006.4 |
| 20260903020524 | 61 | 203 | 4.0 | 12.0 | 0.00 | 0.10 | 0.09 | 76 | 1006.4 |
| 20260903020049 | 61 | 171 | 7.0 | 12.0 | 0.00 | 0.10 | 0.09 | 76 | 1006.4 |
| 20260903015524 | 62 | 194 | 6.0 | 14.0 | 0.00 | 0.10 | 0.09 | 75 | 1006.3 |
| 20260903015024 | 62 | 218 | 8.0 | 15.0 | 0.00 | 0.10 | 0.09 | 75 | 1006.3 |
| 20260903014558 | 62 | 189 | 7.0 | 15.0 | 0.00 | 0.10 | 0.09 | 75 | 1006.4 |
| 20260903014026 | 62 | 168 | 5.0 | 14.0 | 0.00 | 0.10 | 0.09 | 76 | 1006.3 |
| 20260903013526 | 62 | 205 | 8.0 | 12.0 | 0.00 | 0.10 | 0.09 | 75 | 1006.4 |
| 20260903013049 | 62 | 194 | 7.0 | 11.0 | 0.00 | 0.10 | 0.09 | 76 | 1006.2 |
| 20260903012524 | 62 | 212 | 5.0 | 8.0 | 0.00 | 0.10 | 0.09 | 76 | 1006.1 |
| 20260903012024 | 62 | 208 | 5.0 | 11.0 | 0.00 | 0.10 | 0.09 | 75 | 1006.1 |
| 20260903011554 | 62 | 213 | 6.0 | 11.0 | 0.00 | 0.10 | 0.09 | 75 | 1006.0 |
| 20260903011026 | 62 | 194 | 7.0 | 14.0 | 0.00 | 0.10 | 0.09 | 75 | 1005.9 |
| 20260903010527 | 62 | 195 | 8.0 | 14.0 | 0.00 | 0.10 | 0.09 | 75 | 1006.0 |
| 20260903010059 | 62 | 197 | 3.0 | 7.0 | 0.00 | 0.10 | 0.09 | 78 | 1005.9 |
| 20260903005528 | 63 | 257 | 3.0 | 8.0 | 0.00 | 0.10 | 0.09 | 77 | 1005.9 |
| 20260903005027 | 63 | 249 | 4.0 | 10.0 | 0.00 | 0.10 | 0.09 | 77 | 1005.9 |
| 20260903004551 | 64 | 180 | 5.0 | 10.0 | 0.00 | 0.10 | 0.09 | 76 | 1005.9 |
| 20260903004024 | 64 | 215 | 4.0 | 10.0 | 0.00 | 0.10 | 0.09 | 77 | 1005.8 |
| 20260903003525 | 63 | 252 | 3.0 | 12.0 | 0.00 | 0.10 | 0.09 | 78 | 1005.8 |
| 20260903003055 | 63 | 227 | 6.0 | 13.0 | 0.00 | 0.10 | 0.09 | 77 | 1005.8 |
| 20260903002528 | 63 | 261 | 5.0 | 13.0 | 0.00 | 0.10 | 0.09 | 78 | 1005.9 |
| 20260903002027 | 64 | 173 | 5.0 | 13.0 | 0.00 | 0.10 | 0.09 | 77 | 1005.9 |
| 20260903001557 | 64 | 191 | 5.0 | 13.0 | 0.00 | 0.10 | 0.09 | 77 | 1005.7 |
| 20260903001027 | 64 | 162 | 5.0 | 15.0 | 0.00 | 0.10 | 0.09 | 80 | 1005.8 |
| 20260903000527 | 63 | 275 | 6.0 | 15.0 | 0.00 | 0.10 | 0.09 | 82 | 1005.6 |
| 20260903000049 | 63 | 205 | 8.0 | 14.0 | 0.00 | 0.10 | 0.09 | 79 | 1005.6 |
| 20260902235524 | 64 | 236 | 8.0 | 14.0 | 0.00 | 0.10 | 0.09 | 82 | 1005.6 |
| 20260902235024 | 64 | 315 | 7.0 | 14.0 | 0.00 | 0.10 | 0.09 | 82 | 1005.5 |
| 20260902234559 | 64 | 213 | 8.0 | 15.0 | 0.00 | 0.10 | 0.09 | 82 | 1005.3 |
| 20260902234027 | 63 | 225 | 8.0 | 15.0 | 0.00 | 0.10 | 0.09 | 84 | 1005.1 |
| 20260902233528 | 62 | 220 | 7.0 | 18.0 | 0.00 | 0.10 | 0.09 | 85 | 1005.2 |
| 20260902233051 | 62 | 207 | 6.0 | 19.0 | 0.00 | 0.10 | 0.09 | 86 | 1005.0 |
| 20260902232529 | 62 | 158 | 8.0 | 19.0 | 0.00 | 0.10 | 0.09 | 86 | 1005.0 |
| 20260902232027 | 62 | 188 | 9.0 | 15.0 | 0.00 | 0.10 | 0.09 | 87 | 1004.8 |
| 20260902231557 | 62 | 186 | 8.0 | 16.0 | 0.00 | 0.10 | 0.09 | 88 | 1004.8 |
| 20260902231026 | 61 | 161 | 10.0 | 19.0 | 0.00 | 0.10 | 0.09 | 89 | 1004.7 |
| 20260902230526 | 61 | 132 | 12.0 | 23.0 | 0.00 | 0.10 | 0.09 | 89 | 1004.6 |
| 20260902230051 | 60 | 169 | 15.0 | 24.0 | 0.00 | 0.10 | 0.09 | 89 | 1004.6 |
| 20260902225528 | 60 | 187 | 14.0 | 24.0 | 0.00 | 0.11 | 0.09 | 89 | 1004.5 |
| 20260902225032 | 60 | 146 | 15.0 | 24.0 | 0.00 | 0.11 | 0.09 | 89 | 1004.4 |
| 20260902224605 | 60 | 136 | 15.0 | 24.0 | 0.00 | 0.11 | 0.09 | 89 | 1004.4 |
| 20260902224029 | 60 | 140 | 11.0 | 29.0 | 0.00 | 0.11 | 0.09 | 89 | 1004.3 |
| 20260902223531 | 60 | 145 | 15.0 | 29.0 | 0.00 | 0.11 | 0.09 | 88 | 1004.2 |
| 20260902223051 | 60 | 156 | 15.0 | 27.0 | 0.00 | 0.11 | 0.09 | 89 | 1004.1 |
| 20260902222526 | 60 | 150 | 15.0 | 26.0 | 0.00 | 0.11 | 0.09 | 88 | 1004.0 |
| 20260902222027 | 59 | 140 | 12.0 | 22.0 | 0.00 | 0.11 | 0.09 | 89 | 1004.2 |
| 20260902221549 | 59 | 108 | 14.0 | 23.0 | 0.00 | 0.11 | 0.09 | 89 | 1004.2 |
| 20260902221025 | 59 | 121 | 14.0 | 23.0 | 0.00 | 0.11 | 0.09 | 89 | 1004.0 |
| 20260902220528 | 59 | 165 | 10.0 | 23.0 | 0.00 | 0.11 | 0.09 | 89 | 1004.2 |
| 20260902220056 | 59 | 150 | 12.0 | 24.0 | 0.00 | 0.11 | 0.09 | 89 | 1004.2 |
| 20260902215527 | 59 | 147 | 12.0 | 24.0 | 0.00 | 0.11 | 0.09 | 89 | 1004.2 |
| 20260902215026 | 59 | 121 | 11.0 | 21.0 | 0.00 | 0.11 | 0.09 | 89 | 1004.3 |
| 20260902214550 | 59 | 178 | 12.0 | 21.0 | 0.00 | 0.11 | 0.09 | 88 | 1004.2 |
| 20260902214023 | 59 | 148 | 10.0 | 24.0 | 0.00 | 0.11 | 0.09 | 89 | 1004.2 |
| 20260902213524 | 59 | 136 | 13.0 | 24.0 | 0.01 | 0.11 | 0.09 | 89 | 1004.2 |
| 20260902213100 | 59 | 116 | 9.0 | 15.0 | 0.01 | 0.11 | 0.09 | 89 | 1004.2 |
| 20260902212525 | 59 | 149 | 9.0 | 14.0 | 0.01 | 0.11 | 0.09 | 89 | 1004.3 |
| 20260902212023 | 59 | 128 | 6.0 | 17.0 | 0.01 | 0.11 | 0.09 | 89 | 1004.3 |
| 20260902211549 | 59 | 111 | 7.0 | 21.0 | 0.01 | 0.11 | 0.09 | 89 | 1004.3 |
| 20260902211025 | 59 | 134 | 7.0 | 21.0 | 0.02 | 0.11 | 0.09 | 89 | 1004.3 |
| 20260902210523 | 59 | 130 | 11.0 | 17.0 | 0.03 | 0.11 | 0.09 | 89 | 1004.4 |
| 20260902210051 | 59 | 121 | 10.0 | 18.0 | 0.03 | 0.11 | 0.09 | 89 | 1004.5 |
| 20260902205527 | 59 | 173 | 10.0 | 18.0 | 0.03 | 0.11 | 0.09 | 90 | 1004.5 |
| 20260902205024 | 59 | 132 | 6.0 | 16.0 | 0.04 | 0.11 | 0.09 | 89 | 1004.5 |
| 20260902204550 | 59 | 138 | 11.0 | 16.0 | 0.04 | 0.11 | 0.09 | 89 | 1004.6 |
| 20260902204023 | 59 | 122 | 10.0 | 17.0 | 0.05 | 0.11 | 0.09 | 89 | 1004.6 |
| 20260902203525 | 59 | 144 | 7.0 | 17.0 | 0.04 | 0.10 | 0.08 | 89 | 1004.8 |
| 20260902203101 | 59 | 156 | 6.0 | 14.0 | 0.05 | 0.10 | 0.08 | 89 | 1004.7 |
| 20260902202524 | 59 | 141 | 8.0 | 14.0 | 0.05 | 0.10 | 0.08 | 89 | 1004.7 |
| 20260902202024 | 59 | 146 | 7.0 | 16.0 | 0.05 | 0.10 | 0.08 | 89 | 1004.9 |
| 20260902201546 | 59 | 121 | 8.0 | 16.0 | 0.05 | 0.09 | 0.07 | 89 | 1004.8 |
| 20260902201024 | 59 | 136 | 7.0 | 14.0 | 0.05 | 0.09 | 0.07 | 89 | 1004.8 |
| 20260902200526 | 60 | 140 | 6.0 | 12.0 | 0.04 | 0.08 | 0.06 | 89 | 1004.9 |
| 20260902200056 | 60 | 109 | 8.0 | 12.0 | 0.04 | 0.08 | 0.06 | 89 | 1005.0 |
| 20260902195526 | 60 | 130 | 5.0 | 14.0 | 0.04 | 0.08 | 0.06 | 89 | 1005.0 |
| 20260902195024 | 60 | 121 | 7.0 | 14.0 | 0.03 | 0.07 | 0.05 | 88 | 1005.1 |
| 20260902194547 | 60 | 134 | 7.0 | 13.0 | 0.04 | 0.07 | 0.05 | 88 | 1005.2 |
| 20260902194024 | 61 | 166 | 7.0 | 13.0 | 0.03 | 0.06 | 0.04 | 87 | 1005.3 |
| 20260902193523 | 61 | 159 | 8.0 | 13.0 | 0.03 | 0.06 | 0.04 | 86 | 1005.2 |
| 20260902193056 | 61 | 123 | 7.0 | 13.0 | 0.02 | 0.05 | 0.03 | 86 | 1005.1 |
| 20260902192524 | 61 | 138 | 6.0 | 18.0 | 0.02 | 0.05 | 0.03 | 85 | 1005.1 |
| 20260902192031 | 61 | 147 | 5.0 | 18.0 | 0.02 | 0.05 | 0.03 | 85 | 1005.2 |
| 20260902191555 | 62 | 195 | 10.0 | 17.0 | 0.01 | 0.04 | 0.02 | 84 | 1005.4 |
| 20260902191029 | 62 | 150 | 8.0 | 19.0 | 0.01 | 0.04 | 0.02 | 85 | 1005.5 |
| 20260902190525 | 62 | 163 | 6.0 | 19.0 | 0.01 | 0.04 | 0.02 | 84 | 1005.5 |
| 20260902190053 | 62 | 131 | 9.0 | 19.0 | 0.01 | 0.04 | 0.02 | 83 | 1005.6 |
| 20260902185524 | 62 | 130 | 8.0 | 14.0 | 0.01 | 0.04 | 0.02 | 84 | 1005.6 |
| 20260902185024 | 63 | 126 | 6.0 | 14.0 | 0.01 | 0.04 | 0.02 | 83 | 1005.7 |
| 20260902184550 | 63 | 173 | 8.0 | 19.0 | 0.01 | 0.03 | 0.01 | 81 | 1005.5 |
| 20260902184030 | 63 | 134 | 10.0 | 19.0 | 0.01 | 0.03 | 0.01 | 80 | 1005.6 |
| 20260902183523 | 63 | 166 | 10.0 | 20.0 | 0.01 | 0.03 | 0.01 | 79 | 1005.7 |
| 20260902183105 | 63 | 178 | 8.0 | 20.0 | 0.01 | 0.03 | 0.01 | 80 | 1005.7 |
| 20260902182526 | 63 | 173 | 12.0 | 17.0 | 0.01 | 0.03 | 0.01 | 79 | 1005.7 |
| 20260902182029 | 64 | 142 | 7.0 | 14.0 | 0.01 | 0.03 | 0.01 | 81 | 1005.7 |
| 20260902181549 | 63 | 131 | 7.0 | 11.0 | 0.01 | 0.03 | 0.01 | 80 | 1005.7 |
| 20260902181023 | 63 | 149 | 7.0 | 13.0 | 0.01 | 0.03 | 0.01 | 81 | 1005.9 |
| 20260902180525 | 63 | 163 | 6.0 | 13.0 | 0.01 | 0.03 | 0.01 | 82 | 1005.8 |
| 20260902180045 | 63 | 182 | 7.0 | 12.0 | 0.01 | 0.03 | 0.01 | 81 | 1005.9 |
| 20260902175523 | 63 | 174 | 7.0 | 16.0 | 0.01 | 0.03 | 0.01 | 81 | 1005.8 |
| 20260902175023 | 63 | 164 | 10.0 | 17.0 | 0.01 | 0.03 | 0.01 | 80 | 1005.9 |
| 20260902174604 | 63 | 171 | 10.0 | 20.0 | 0.00 | 0.02 | 0.00 | 80 | 1005.9 |
| 20260902174029 | 63 | 165 | 13.0 | 20.0 | 0.00 | 0.02 | 0.00 | 79 | 1005.8 |
| 20260902173529 | 64 | 190 | 8.0 | 16.0 | 0.00 | 0.02 | 0.00 | 79 | 1005.9 |
| 20260902173052 | 64 | 153 | 8.0 | 16.0 | 0.00 | 0.02 | 0.00 | 78 | 1006.0 |
| 20260902172524 | 64 | 149 | 6.0 | 14.0 | 0.00 | 0.02 | 0.00 | 79 | 1006.0 |
| 20260902172024 | 63 | 183 | 5.0 | 12.0 | 0.00 | 0.02 | 0.00 | 80 | 1006.0 |
| 20260902171556 | 63 | 194 | 4.0 | 6.0 | 0.00 | 0.02 | 0.00 | 83 | 1006.0 |
| 20260902171022 | 62 | 215 | 1.0 | 3.0 | 0.00 | 0.02 | 0.00 | 83 | 1006.0 |
| 20260902170522 | 62 | 228 | 0.0 | 4.0 | 0.00 | 0.02 | 0.00 | 83 | 1006.0 |
| 20260902170053 | 62 | 0 | 2.0 | 4.0 | 0.00 | 0.02 | 0.00 | 84 | 1006.2 |
| 20260902165524 | 62 | 143 | 2.0 | 4.0 | 0.00 | 0.02 | 0.00 | 84 | 1006.1 |
| 20260902165031 | 62 | 211 | 0.0 | 2.0 | 0.00 | 0.02 | 0.00 | 86 | 1006.2 |
| 20260902164550 | 61 | 261 | 1.0 | 2.0 | 0.00 | 0.02 | 0.00 | 85 | 1006.1 |
| 20260902164024 | 61 | 0 | 0.0 | 2.0 | 0.00 | 0.02 | 0.00 | 85 | 1006.2 |
| 20260902163524 | 61 | 0 | 0.0 | 2.0 | 0.00 | 0.02 | 0.00 | 86 | 1006.2 |
| 20260902163100 | 60 | 299 | 0.0 | 2.0 | 0.00 | 0.02 | 0.00 | 88 | 1006.2 |
| 20260902162526 | 60 | 296 | 1.0 | 2.0 | 0.00 | 0.02 | 0.00 | 89 | 1006.3 |
| 20260902162030 | 60 | 0 | 0.0 | 1.0 | 0.00 | 0.02 | 0.00 | 90 | 1006.3 |
| 20260902161553 | 60 | 269 | 0.0 | 1.0 | 0.00 | 0.02 | 0.00 | 91 | 1006.4 |
| 20260902161029 | 60 | 269 | 0.0 | 1.0 | 0.00 | 0.02 | 0.00 | 90 | 1006.4 |
| 20260902160529 | 59 | 0 | 0.0 | 1.0 | 0.00 | 0.02 | 0.00 | 91 | 1006.5 |
| 20260902160049 | 59 | 0 | 0.0 | 1.0 | 0.00 | 0.02 | 0.00 | 90 | 1006.6 |
| 20260902155525 | 59 | 0 | 0.0 | 1.0 | 0.00 | 0.02 | 0.00 | 90 | 1006.6 |
| 20260902155032 | 59 | 0 | 0.0 | 1.0 | 0.00 | 0.02 | 0.00 | 90 | 1006.6 |
| 20260902154550 | 59 | 0 | 0.0 | 1.0 | 0.00 | 0.02 | 0.00 | 90 | 1006.6 |
| 20260902154027 | 59 | 211 | 0.0 | 1.0 | 0.00 | 0.02 | 0.00 | 90 | 1006.7 |
| 20260902153527 | 59 | 0 | 0.0 | 2.0 | 0.00 | 0.02 | 0.00 | 90 | 1006.8 |
| 20260902153059 | 59 | 0 | 0.0 | 2.0 | 0.00 | 0.02 | 0.00 | 89 | 1006.8 |
| 20260902152527 | 59 | 163 | 1.0 | 5.0 | 0.00 | 0.02 | 0.00 | 90 | 1006.9 |
| 20260902152030 | 59 | 207 | 1.0 | 6.0 | 0.00 | 0.02 | 0.00 | 90 | 1007.0 |
| 20260902151555 | 59 | 188 | 1.0 | 6.0 | 0.00 | 0.02 | 0.00 | 90 | 1007.1 |
| 20260902151027 | 59 | 200 | 1.0 | 5.0 | 0.00 | 0.02 | 0.00 | 90 | 1007.1 |
| 20260902150524 | 59 | 198 | 3.0 | 7.0 | 0.00 | 0.02 | 0.00 | 90 | 1007.1 |
| 20260902150049 | 58 | 192 | 3.0 | 7.0 | 0.00 | 0.02 | 0.00 | 91 | 1007.4 |
| 20260902145524 | 58 | 261 | 0.0 | 1.0 | 0.00 | 0.02 | 0.00 | 91 | 1007.4 |
| 20260902145029 | 58 | 0 | 0.0 | 1.0 | 0.00 | 0.02 | 0.00 | 91 | 1007.4 |
| 20260902144549 | 58 | 0 | 0.0 | 2.0 | 0.00 | 0.02 | 0.00 | 91 | 1007.5 |
| 20260902144027 | 58 | 183 | 0.0 | 2.0 | 0.00 | 0.02 | 0.00 | 91 | 1007.6 |
| 20260902143526 | 58 | 154 | 0.0 | 4.0 | 0.00 | 0.02 | 0.00 | 91 | 1007.6 |
| 20260902143052 | 58 | 145 | 2.0 | 5.0 | 0.00 | 0.02 | 0.00 | 91 | 1007.7 |
| 20260902142525 | 58 | 124 | 3.0 | 5.0 | 0.00 | 0.02 | 0.00 | 91 | 1007.6 |
| 20260902142027 | 58 | 185 | 2.0 | 6.0 | 0.00 | 0.02 | 0.00 | 92 | 1007.7 |
| 20260902141548 | 58 | 160 | 3.0 | 8.0 | 0.00 | 0.02 | 0.00 | 92 | 1007.7 |
| 20260902141026 | 58 | 160 | 4.0 | 9.0 | 0.00 | 0.02 | 0.00 | 92 | 1007.6 |
| 20260902140524 | 58 | 195 | 5.0 | 9.0 | 0.00 | 0.02 | 0.00 | 92 | 1007.6 |
| 20260902140047 | 58 | 108 | 5.0 | 12.0 | 0.00 | 0.02 | 0.00 | 92 | 1007.6 |
| 20260902135526 | 58 | 207 | 4.0 | 14.0 | 0.00 | 0.02 | 0.00 | 93 | 1007.6 |
| 20260902135027 | 58 | 153 | 7.0 | 14.0 | 0.00 | 0.02 | 0.00 | 93 | 1007.7 |
| 20260902134558 | 58 | 134 | 7.0 | 13.0 | 0.00 | 0.02 | 0.00 | 94 | 1007.9 |
| 20260902134029 | 58 | 176 | 5.0 | 10.0 | 0.00 | 0.02 | 0.00 | 95 | 1007.9 |
| 20260902133526 | 58 | 154 | 6.0 | 11.0 | 0.00 | 0.02 | 0.00 | 95 | 1008.1 |
| 20260902133053 | 57 | 169 | 6.0 | 11.0 | 0.00 | 0.02 | 0.00 | 96 | 1008.1 |
| 20260902132525 | 57 | 179 | 6.0 | 10.0 | 0.00 | 0.02 | 0.00 | 97 | 1008.1 |
| 20260902132028 | 57 | 150 | 5.0 | 10.0 | 0.00 | 0.02 | 0.00 | 97 | 1008.2 |
| 20260902131557 | 57 | 198 | 5.0 | 8.0 | 0.00 | 0.02 | 0.00 | 98 | 1008.2 |
| 20260902131027 | 57 | 206 | 2.0 | 6.0 | 0.00 | 0.02 | 0.00 | 98 | 1008.2 |
| 20260902130526 | 56 | 157 | 4.0 | 9.0 | 0.00 | 0.02 | 0.00 | 98 | 1008.2 |
| 20260902130056 | 56 | 149 | 4.0 | 9.0 | 0.00 | 0.02 | 0.00 | 98 | 1008.2 |
| 20260902125527 | 56 | 121 | 2.0 | 6.0 | 0.00 | 0.02 | 0.00 | 98 | 1008.3 |
| 20260902125030 | 55 | 137 | 2.0 | 6.0 | 0.00 | 0.02 | 0.00 | 98 | 1008.2 |
| 20260902124548 | 55 | 0 | 1.0 | 5.0 | 0.00 | 0.02 | 0.00 | 98 | 1008.3 |
| 20260902124024 | 55 | 0 | 0.0 | 2.0 | 0.00 | 0.02 | 0.00 | 98 | 1008.5 |
| 20260902123528 | 55 | 138 | 0.0 | 2.0 | 0.00 | 0.02 | 0.00 | 98 | 1008.3 |
| 20260902123105 | 55 | 123 | 0.0 | 2.0 | 0.00 | 0.02 | 0.00 | 98 | 1008.5 |
| 20260902122531 | 55 | 209 | 0.0 | 1.0 | 0.00 | 0.02 | 0.00 | 98 | 1008.5 |
| 20260902122026 | 55 | 0 | 0.0 | 0.0 | 0.00 | 0.02 | 0.00 | 98 | 1008.6 |
| 20260902121559 | 55 | 0 | 0.0 | 0.0 | 0.00 | 0.02 | 0.00 | 98 | 1008.7 |
| 20260902121027 | 55 | 0 | 0.0 | 0.0 | 0.00 | 0.02 | 0.00 | 98 | 1008.7 |
| 20260902120527 | 55 | 0 | 0.0 | 0.0 | 0.00 | 0.02 | 0.00 | 98 | 1008.8 |
| 20260902115525 | 54 | 0 | 0.0 | 0.0 | 0.00 | 0.02 | 0.00 | 98 | 1008.9 |
| 20260902115028 | 54 | 0 | 0.0 | 0.0 | 0.00 | 0.02 | 0.00 | 98 | 1009.0 |
| 20260902114548 | 55 | 0 | 0.0 | 0.0 | 0.00 | 0.02 | 0.00 | 98 | 1009.0 |
| 20260902114027 | 55 | 0 | 0.0 | 0.0 | 0.00 | 0.02 | 0.00 | 98 | 1009.0 |
| 20260902113524 | 54 | 0 | 0.0 | 0.0 | 0.00 | 0.02 | 0.00 | 98 | 1009.0 |